Location: Arroyo de Valdeoliva
(40.1604°N, 4.9878°W)
Time: 03:49:59
(UTC+00:00)

EXPRESS MD2 - Pass Details

Date: 11 December 2025
Orbit: 258 x 2834 km, 49.8° (Epoch: 13 January)

Event Time Altitude Azimuth Distance (km) Brightness Sun altitude
Rises 17:52:27 0° 226° (SW) 1,863 7.4 -10.9°
Reaches altitude 10° 17:54:05 10° 221° (SW) 1,128 6.0 -11.1°
Maximum altitude 17:56:24 57° 141° (SE) 408 2.5 -11.6°
Enters shadow 17:58:18 20° 67° (ENE) 1,003 4.0 -11.9°
